Retour au catalogue

COSMOS 2468

ActifMilitairePO
NORAD 37154·PAYLOAD·🇷🇺 Russia

Lancé Sep 8, 2010 depuis Plesetsk Cosmodrome

Loading…

Prochains Passages (prochaines 24 heures)

TLE

FraisSource: Space-Track

Époque: Sep 14, 2026, 14:24 UTC

1 37154U 10043C   26257.60000017  .00000036  00000-0  18576-3 0  9993
2 37154  82.4663   6.2415 0015652 113.3940 257.7323 12.43749591726996

Suivez COSMOS 2468 en temps réel avec AllMySat

Download on the App Store